カタログに戻る

STARLINK-1216

運用中通信VLEO
NORAD 45185·PAYLOAD·🇺🇸 United States

打ち上げ Feb 17, 2020 から Cape Canaveral Space Force Station

Loading…

次のパス (今後24時間)

TLE

最新Source: CelesTrak SupGP

元期: Sep 14, 2026, 13:45 UTC

1 45185C 20012H   26257.57340278 -.00019753  00000+0 -41129-3 0  2579
2 45185  53.1530 233.2176 0002964  44.8134  18.7096 15.45022408    14

AllMySatでSTARLINK-1216をリアルタイム追跡

Download on the App Store